IRIDIUM 33 DEB

Satellite information

Favourite Embed

Satellite Type and Status

DEBRISIN ORBIT

Key statistics

Satellite IRIDIUM 33 DEB at a glance.

Uptime

10267

Days in orbit

Revolutions

≈ 14.7

Per day

Orbit

LEO

Low Earth Orbit

Inclination

86.3

Latest

Satellite identification and parameters

Extended collection of information and parameters for IRIDIUM 33 DEB.

Object identification

Identified? True

Debris? True

Object name: IRIDIUM 33 DEB

International designator: 1997-051ST

Object number (NORAD): 35809

Object ID (CCSDS): 35809

Country: UNITED STATES OF AMERICA (US)

Current information (Y/N): Y

RCS size: SMALL

Orbital parameters

Period: 97.683 minutes

Inclination: 86.3325 deg

SMA: 7025.977 km

Apoapsis: 658.184 km

Periapsis: 637.5 km

RAAN: 359.8145 deg

Eccentricy: 0.001472

Argument of periapsis: 80.9166 deg

Mean anomaly: 279.3717 deg

Mean motion: 14.74153421 rev/day

Mean motion (dot): 0.00018788 rev/day2

B* drag term: 0.0028359 1/REarth

Two-line elements (TLE)

Creation date: Oct. 20, 2025, 6:36 a.m.

Reference frame: TEME

Reference center: EARTH

Epoch: Oct. 19, 2025, 10:10 p.m. UTC

TLE line 0: 0 IRIDIUM 33 DEB

TLE line 1: 1 35809U 97051ST 25292.92411063 .00018788 00000-0 28359-2 0 9994

TLE line 2: 2 35809 86.3325 359.8145 0014720 80.9166 279.3717 14.74153421860140

Live tracking on map

Real-time ground track for satellite IRIDIUM 33 DEB.

In-orbit conjunctions

A list of the most updated potential collisions computed for object IRIDIUM 33 DEB.

Target Orbit TCA Probability of collision Miss distance Type
CZ-6A DEB LEO 2025-01-28 08:48:59 0.0002930563 575.0 (m) DEBRIS
CZ-6A DEB LEO 2024-10-22 08:10:20 0.0001466769 84.0 (m) DEBRIS
CZ-6A DEB LEO 2024-10-02 12:03:48 0.000103317 455.0 (m) DEBRIS

Associated space launch

Iridium provides global mobile telecommunications services using a constellation of 66 low earth orbit satellites in a 86.4° inclined orbit. Although 77 satellites were originally envisioned for the system and spawned the name based on the 77th element in the periodic table, the system has been scaled back. Motorola's Satellite Communications Group designed and manufactured the Iridium satellites with Lockheed Martin providing the LM-700A spacecraft buses.

IRIDIUM 33 DEB was lifted into orbit during the mission ‘Proton-K/17S40 | Iridium 27 to 33’, on board a Proton-K/17S40 space rocket.

The launch took place on Sept. 14, 1997, 1:36 a.m. from 81/23 (81L).

For more information about the launch, click the button.

Launch to space Proton-K/17S40 | Iridium 27 to 33
Proton-K/17S40 | Iridium 27 to 33

Agency: N/A

Status: Launch Successful

Launch date: Sept. 14, 1997, 1:36 a.m. UTC

Rocket: Proton-K/17S40

Launch pad: 81/23 (81L)

Location: Baikonur Cosmodrome, Republic of Kazakhstan

...

Latest news about this satellite

There are no fresh news available about this satellite. Check back as we update our databases every day.


Newsletter sign-up

Weekly statistics, charts and insights to help you stay on top of the space industry.